Flag for Poland Weather past 2 weeks in Elbląg, Poland

Now
59 °F

Fog.


Feels Like: 59 °F
Forecast: 55 / 72 °F
Wind: 2 mph from East

Location: Hel

Current Time: Sep 20, 2014 at 10:29:32 PM

Latest Report: Sep 20, 2014 at 9:00 PM


Visibility: 5 mi

Pressure: 29.92 "Hg

Humidity: 94%

Dew point: 57 °F

Location of ElblągLocation

Historic Weather in Elbląg — Graph

°F

Elbląg temperature yesterday

Maximum temperature yesterday: 66 °F (at 3:00 PM)
Minimum temperature yesterday: 57 °F (at 7:00 AM)
Average temperature yesterday: 62 °F

Past Weeks' High & Low Weather Summary

 TemperatureHumidityPressure
High69 °F (Sep 13, 1:00 PM)98% (Sep 9, 2:00 AM)30.31 "Hg (Sep 9, 2:00 AM)
Low52 °F (Sep 6, 7:00 AM)62% (Sep 7, 2:00 PM)29.85 "Hg (Sep 10, 5:00 AM)
Average61 °F85%30.10 "Hg
* Reported Sep 5 9:00 PM — Sep 20 9:00 PM, Elbląg, Weather by CustomWeather, © 2014

Note: Actual official high and low records may vary slightly from our data, if they occured in-between our weather recording intervals... More about our weather records

Advertising

Elbląg weather history for previous 24 hours

 ConditionsComfort  
Time TempWeatherWind HumidityBarometerVisibility
9:00 PM
Sep 20
59 °FFog.2 mph94%29.92 "Hg5 mi
8:00 PM60 °FFog.3 mph94%29.92 "Hg6 mi
7:00 PM61 °FPassing clouds.2 mph91%29.92 "Hg9 mi
3:00 PM65 °FScattered clouds.2 mph73%29.95 "Hg11 mi
2:00 PM66 °FScattered clouds.2 mph71%29.96 "Hg11 mi
1:00 PM66 °FScattered clouds.2 mph68%29.96 "Hg11 mi
12:00 PM65 °FScattered clouds.2 mph71%29.97 "Hg10 mi
11:00 AM63 °FFog.2 mph78%29.98 "Hg5 mi
10:00 AM60 °FFog.3 mph85%29.98 "Hg5 mi
9:00 AM59 °FFog.2 mph90%29.98 "Hg5 mi
8:00 AM56 °FFog.2 mph96%29.98 "Hg3 mi
7:00 AM55 °FFog.2 mph96%29.98 "Hg3 mi
6:00 AM55 °FFog.2 mph92%29.98 "Hg4 mi
5:00 AM57 °FFog.1 mph91%29.98 "Hg6 mi
4:00 AM57 °FFog.2 mph93%29.99 "Hg5 mi
3:00 AM57 °FFog.2 mph92%29.99 "Hg5 mi
2:00 AM58 °FClear.2 mph89%29.99 "Hg6 mi
1:00 AM59 °FPassing clouds.2 mph86%30.00 "Hg7 mi
12:00 AM61 °FPassing clouds.3 mph83%30.00 "Hg9 mi
11:00 PM
Sep 19
62 °FPassing clouds.3 mph81%30.01 "Hg9 mi
10:00 PM62 °FPassing clouds.3 mph80%30.01 "Hg9 mi
Weather by CustomWeather, © 2014

See weather overviewHow to use our weather pages